Time,TemperatureF,DewpointF,PressureIn,WindDirection,WindDirectionDegrees,WindSpeedMPH,WindSpeedGustMPH,Humidity,HourlyPrecipIn,Conditions,Clouds,dailyrainin,SoftwareType,DateUTC
2013-09-07 00:01:00,52.2,49.1,30.20,SSE,147,0.0,0.0,89,0.00,,,0.00,meteobridge,2013-09-07 04:01:00,
2013-09-07 00:02:00,52.2,49.1,30.20,SSE,147,0.0,0.0,89,0.00,,,0.00,meteobridge,2013-09-07 04:02:00,
2013-09-07 00:03:00,52.2,49.1,30.20,SSE,147,0.0,0.0,89,0.00,,,0.00,meteobridge,2013-09-07 04:03:00,
2013-09-07 00:08:00,52.2,49.1,30.19,SSE,147,0.0,0.0,89,0.00,,,0.00,meteobridge,2013-09-07 04:08:00,
2013-09-07 00:13:00,52.0,48.9,30.20,SSE,147,0.0,0.0,89,0.00,,,0.00,meteobridge,2013-09-07 04:13:00,
2013-09-07 00:19:00,52.0,48.9,30.20,SSE,147,0.0,0.0,89,0.00,,,0.00,meteobridge,2013-09-07 04:19:00,
2013-09-07 00:24:00,51.8,48.9,30.20,SSE,147,0.0,0.0,90,0.00,,,0.00,meteobridge,2013-09-07 04:24:00,
2013-09-07 00:29:00,51.6,48.7,30.20,SSE,147,0.0,0.0,90,0.00,,,0.00,meteobridge,2013-09-07 04:29:00,
2013-09-07 00:34:00,51.6,48.7,30.20,SSE,147,0.0,0.0,90,0.00,,,0.00,meteobridge,2013-09-07 04:34:00,
2013-09-07 00:40:00,51.4,48.6,30.20,SSE,147,0.0,0.0,90,0.00,,,0.00,meteobridge,2013-09-07 04:40:00,
2013-09-07 00:45:00,51.3,48.4,30.20,SSE,147,0.0,0.0,90,0.00,,,0.00,meteobridge,2013-09-07 04:45:00,
2013-09-07 00:50:00,51.3,48.4,30.20,SSE,147,0.0,0.0,90,0.00,,,0.00,meteobridge,2013-09-07 04:50:00,
2013-09-07 00:55:00,51.3,48.7,30.20,SSE,147,0.0,0.0,91,0.00,,,0.00,meteobridge,2013-09-07 04:55:00,
2013-09-07 01:00:00,51.1,48.6,30.20,SSE,147,0.0,0.0,91,0.00,,,0.00,meteobridge,2013-09-07 05:00:00,
2013-09-07 01:06:00,51.1,48.6,30.20,SSE,147,0.0,0.0,91,0.00,,,0.00,meteobridge,2013-09-07 05:06:00,
2013-09-07 01:11:00,50.9,48.4,30.20,SSE,147,0.0,0.0,91,0.00,,,0.00,meteobridge,2013-09-07 05:11:00,
2013-09-07 01:16:00,50.7,48.2,30.20,SSE,147,0.0,0.0,91,0.00,,,0.00,meteobridge,2013-09-07 05:16:00,
2013-09-07 01:21:00,50.5,47.7,30.19,SSE,147,0.0,0.0,90,0.00,,,0.00,meteobridge,2013-09-07 05:21:00,
2013-09-07 01:26:00,50.4,47.8,30.19,SSE,147,0.0,0.0,91,0.00,,,0.00,meteobridge,2013-09-07 05:26:00,
2013-09-07 01:31:00,50.4,47.5,30.19,SSE,147,0.0,0.0,90,0.00,,,0.00,meteobridge,2013-09-07 05:31:00,
2013-09-07 01:36:00,50.4,47.8,30.19,SSE,147,0.0,0.0,91,0.00,,,0.00,meteobridge,2013-09-07 05:36:00,
2013-09-07 01:42:00,50.4,47.5,30.19,SSE,147,0.0,0.0,90,0.00,,,0.00,meteobridge,2013-09-07 05:42:00,
2013-09-07 01:47:00,50.4,47.5,30.19,SSE,147,0.0,0.0,90,0.00,,,0.00,meteobridge,2013-09-07 05:47:00,
2013-09-07 01:52:00,50.2,47.3,30.19,SSE,147,0.0,0.0,90,0.00,,,0.00,meteobridge,2013-09-07 05:52:00,
2013-09-07 01:57:00,50.2,47.7,30.19,SSE,147,0.0,0.0,91,0.00,,,0.00,meteobridge,2013-09-07 05:57:00,
2013-09-07 02:02:00,50.0,47.5,30.19,SSE,147,0.0,0.0,91,0.00,,,0.00,meteobridge,2013-09-07 06:02:00,
2013-09-07 02:07:00,49.8,47.3,30.19,SSE,147,0.0,0.0,91,0.00,,,0.00,meteobridge,2013-09-07 06:07:00,
2013-09-07 02:13:00,49.8,46.9,30.19,SSE,147,0.0,0.0,90,0.00,,,0.00,meteobridge,2013-09-07 06:13:00,
2013-09-07 02:18:00,49.6,47.1,30.19,SSE,147,0.0,0.0,91,0.00,,,0.00,meteobridge,2013-09-07 06:18:00,
2013-09-07 02:23:00,49.6,47.1,30.19,SSE,147,0.0,0.0,91,0.00,,,0.00,meteobridge,2013-09-07 06:23:00,
2013-09-07 02:28:00,49.6,47.1,30.19,SSE,147,0.0,0.0,91,0.00,,,0.00,meteobridge,2013-09-07 06:28:00,
2013-09-07 02:33:00,49.6,47.1,30.19,SSE,147,0.0,0.0,91,0.00,,,0.00,meteobridge,2013-09-07 06:33:00,
2013-09-07 02:38:00,49.6,47.1,30.19,SSE,147,0.0,0.0,91,0.00,,,0.00,meteobridge,2013-09-07 06:38:00,
2013-09-07 02:44:00,49.6,47.1,30.19,SSE,147,0.0,0.0,91,0.00,,,0.00,meteobridge,2013-09-07 06:44:00,
2013-09-07 02:49:00,49.6,47.1,30.19,SSE,147,0.0,0.0,91,0.00,,,0.00,meteobridge,2013-09-07 06:49:00,
2013-09-07 02:54:00,49.5,46.9,30.19,SSE,147,0.0,0.0,91,0.00,,,0.00,meteobridge,2013-09-07 06:54:00,
2013-09-07 02:59:00,49.5,46.9,30.19,SSE,147,0.0,0.0,91,0.00,,,0.00,meteobridge,2013-09-07 06:59:00,
2013-09-07 03:05:00,49.3,46.8,30.19,SSE,147,0.0,0.0,91,0.00,,,0.00,meteobridge,2013-09-07 07:05:00,
2013-09-07 03:10:00,49.3,46.8,30.19,SSE,147,0.0,0.0,91,0.00,,,0.00,meteobridge,2013-09-07 07:10:00,
2013-09-07 03:15:00,49.3,46.8,30.19,SSE,147,0.0,0.0,91,0.00,,,0.00,meteobridge,2013-09-07 07:15:00,
2013-09-07 03:20:00,49.5,46.9,30.19,SSE,147,0.0,0.0,91,0.00,,,0.00,meteobridge,2013-09-07 07:20:00,
2013-09-07 03:25:00,49.5,47.3,30.19,SSE,147,0.0,0.0,92,0.00,,,0.00,meteobridge,2013-09-07 07:25:00,
2013-09-07 03:30:00,49.5,47.3,30.19,SSE,147,0.0,0.0,92,0.00,,,0.00,meteobridge,2013-09-07 07:30:00,
2013-09-07 03:36:00,49.5,47.3,30.19,SSE,147,0.0,0.0,92,0.00,,,0.00,meteobridge,2013-09-07 07:36:00,
2013-09-07 03:41:00,49.3,46.8,30.19,SSE,147,0.0,0.0,91,0.00,,,0.00,meteobridge,2013-09-07 07:41:00,
2013-09-07 03:46:00,49.1,46.6,30.19,SSE,147,0.0,0.0,91,0.00,,,0.00,meteobridge,2013-09-07 07:46:00,
2013-09-07 03:51:00,48.9,46.8,30.19,SSE,147,0.0,0.0,92,0.00,,,0.00,meteobridge,2013-09-07 07:51:00,
2013-09-07 03:56:00,48.7,46.6,30.19,SSE,147,0.0,0.0,92,0.00,,,0.00,meteobridge,2013-09-07 07:56:00,
2013-09-07 04:01:00,48.7,46.6,30.18,SSE,147,0.0,0.0,92,0.00,,,0.00,meteobridge,2013-09-07 08:01:00,
2013-09-07 04:06:00,48.9,46.9,30.18,SSE,147,0.0,0.0,93,0.00,,,0.00,meteobridge,2013-09-07 08:06:00,
2013-09-07 04:12:00,48.9,46.9,30.18,SSE,147,0.0,0.0,93,0.00,,,0.00,meteobridge,2013-09-07 08:12:00,
2013-09-07 04:17:00,48.7,46.6,30.18,SSE,147,0.0,0.0,92,0.00,,,0.00,meteobridge,2013-09-07 08:17:00,
2013-09-07 04:22:00,48.7,46.6,30.18,SSE,147,0.0,0.0,92,0.00,,,0.00,meteobridge,2013-09-07 08:22:00,
2013-09-07 04:27:00,48.6,46.4,30.18,SSE,147,0.0,0.0,92,0.00,,,0.00,meteobridge,2013-09-07 08:27:00,
2013-09-07 04:32:00,48.6,46.4,30.18,SSE,147,0.0,0.0,92,0.00,,,0.00,meteobridge,2013-09-07 08:32:00,
2013-09-07 04:37:00,48.6,46.6,30.18,SSE,147,0.0,0.0,93,0.00,,,0.00,meteobridge,2013-09-07 08:37:00,
2013-09-07 04:42:00,48.6,46.6,30.18,SSE,147,0.0,0.0,93,0.00,,,0.00,meteobridge,2013-09-07 08:42:00,
2013-09-07 04:47:00,48.4,46.2,30.18,SSE,147,0.0,0.0,92,0.00,,,0.00,meteobridge,2013-09-07 08:47:00,
2013-09-07 04:52:00,48.4,46.4,30.18,SSE,147,0.0,0.0,93,0.00,,,0.00,meteobridge,2013-09-07 08:52:00,
2013-09-07 04:58:00,48.4,46.4,30.18,SSE,147,0.0,0.0,93,0.00,,,0.00,meteobridge,2013-09-07 08:58:00,
2013-09-07 05:03:00,48.2,46.2,30.18,SSE,147,0.0,0.0,93,0.00,,,0.00,meteobridge,2013-09-07 09:03:00,
2013-09-07 05:08:00,48.0,46.0,30.18,SSE,147,0.0,0.0,93,0.00,,,0.00,meteobridge,2013-09-07 09:08:00,
2013-09-07 05:14:00,48.0,46.0,30.18,SSE,147,0.0,0.0,93,0.00,,,0.00,meteobridge,2013-09-07 09:14:00,
2013-09-07 05:19:00,48.0,46.0,30.18,SSE,147,0.0,0.0,93,0.00,,,0.00,meteobridge,2013-09-07 09:19:00,
2013-09-07 05:24:00,48.0,46.0,30.18,SSE,147,0.0,0.0,93,0.00,,,0.00,meteobridge,2013-09-07 09:24:00,
2013-09-07 05:29:00,47.8,45.9,30.18,SSE,147,0.0,0.0,93,0.00,,,0.00,meteobridge,2013-09-07 09:29:00,
2013-09-07 05:35:00,47.8,46.2,30.18,SSE,147,0.0,0.0,94,0.00,,,0.00,meteobridge,2013-09-07 09:35:00,
2013-09-07 05:40:00,47.8,46.2,30.18,SSE,147,0.0,0.0,94,0.00,,,0.00,meteobridge,2013-09-07 09:40:00,
2013-09-07 05:45:00,47.8,46.2,30.18,SSE,147,0.0,0.0,94,0.00,,,0.00,meteobridge,2013-09-07 09:45:00,
2013-09-07 05:50:00,47.8,46.2,30.18,SSE,147,0.0,0.0,94,0.00,,,0.00,meteobridge,2013-09-07 09:50:00,
2013-09-07 05:55:00,47.8,46.2,30.18,SSE,147,0.0,0.0,94,0.00,,,0.00,meteobridge,2013-09-07 09:55:00,
2013-09-07 06:00:00,47.8,46.2,30.18,SSE,147,0.0,0.0,94,0.00,,,0.00,meteobridge,2013-09-07 10:00:00,
2013-09-07 06:05:00,47.8,46.2,30.17,SSE,147,0.0,0.0,94,0.00,,,0.00,meteobridge,2013-09-07 10:05:00,
2013-09-07 06:10:00,47.8,46.2,30.17,SSE,147,0.0,0.0,94,0.00,,,0.00,meteobridge,2013-09-07 10:10:00,
2013-09-07 06:15:00,47.7,46.0,30.17,SSE,147,0.0,0.0,94,0.00,,,0.00,meteobridge,2013-09-07 10:15:00,
2013-09-07 06:21:00,47.7,46.0,30.17,SSE,147,0.0,0.0,94,0.00,,,0.00,meteobridge,2013-09-07 10:21:00,
2013-09-07 06:26:00,47.7,46.2,30.17,SSE,147,0.0,0.0,95,0.00,,,0.00,meteobridge,2013-09-07 10:26:00,
2013-09-07 06:31:00,47.7,46.2,30.18,SSE,147,0.0,0.0,95,0.00,,,0.00,meteobridge,2013-09-07 10:31:00,
2013-09-07 06:36:00,47.7,46.2,30.17,SSE,147,0.0,0.0,95,0.00,,,0.00,meteobridge,2013-09-07 10:36:00,
2013-09-07 06:41:00,47.7,46.2,30.17,SSE,147,0.0,0.0,95,0.00,,,0.00,meteobridge,2013-09-07 10:41:00,
2013-09-07 06:46:00,47.8,46.4,30.17,SSE,147,0.0,0.0,95,0.00,,,0.00,meteobridge,2013-09-07 10:46:00,
2013-09-07 06:51:00,47.7,46.2,30.17,SSE,147,0.0,0.0,95,0.00,,,0.00,meteobridge,2013-09-07 10:51:00,
2013-09-07 06:57:00,47.7,46.2,30.17,SSE,147,0.0,0.0,95,0.00,,,0.00,meteobridge,2013-09-07 10:57:00,
2013-09-07 07:02:00,47.7,46.2,30.17,SSE,147,0.0,0.0,95,0.00,,,0.00,meteobridge,2013-09-07 11:02:00,
2013-09-07 07:07:00,47.7,46.2,30.17,SSE,147,0.0,0.0,95,0.00,,,0.00,meteobridge,2013-09-07 11:07:00,
2013-09-07 07:12:00,47.8,46.4,30.17,SSE,147,0.0,0.0,95,0.00,,,0.00,meteobridge,2013-09-07 11:12:00,
2013-09-07 07:18:00,48.0,46.9,30.17,SSE,147,0.0,0.0,96,0.00,,,0.00,meteobridge,2013-09-07 11:18:00,
2013-09-07 07:23:00,48.4,47.3,30.17,SSE,147,0.0,0.0,96,0.00,,,0.00,meteobridge,2013-09-07 11:23:00,
2013-09-07 07:28:00,48.6,47.5,30.17,SSE,147,0.0,0.0,96,0.00,,,0.00,meteobridge,2013-09-07 11:28:00,
2013-09-07 07:33:00,48.7,47.7,30.17,SSE,147,0.0,0.0,96,0.00,,,0.00,meteobridge,2013-09-07 11:33:00,
2013-09-07 07:39:00,48.9,47.8,30.16,SSE,147,0.0,0.0,96,0.00,,,0.00,meteobridge,2013-09-07 11:39:00,
2013-09-07 07:44:00,49.5,48.4,30.16,SSE,147,0.0,0.0,96,0.00,,,0.00,meteobridge,2013-09-07 11:44:00,
2013-09-07 07:49:00,50.0,48.9,30.16,SSE,147,0.0,0.0,96,0.00,,,0.00,meteobridge,2013-09-07 11:49:00,
2013-09-07 07:54:00,50.5,49.6,30.16,SSE,147,0.0,0.0,97,0.00,,,0.00,meteobridge,2013-09-07 11:54:00,
2013-09-07 07:59:00,51.3,50.4,30.16,SSE,147,0.0,0.0,97,0.00,,,0.00,meteobridge,2013-09-07 11:59:00,
2013-09-07 08:04:00,52.2,51.3,30.16,South,173,0.0,4.0,97,0.00,,,0.00,meteobridge,2013-09-07 12:04:00,
2013-09-07 08:09:00,52.9,52.0,30.16,West,266,0.0,0.9,97,0.00,,,0.00,meteobridge,2013-09-07 12:09:00,
2013-09-07 08:15:00,53.8,52.7,30.16,WSW,253,0.0,0.9,96,0.00,,,0.00,meteobridge,2013-09-07 12:15:00,
2013-09-07 08:20:00,54.7,53.2,30.16,West,261,2.9,2.9,95,0.00,,,0.00,meteobridge,2013-09-07 12:20:00,
2013-09-07 08:25:00,55.4,53.8,30.16,West,261,0.0,2.0,94,0.00,,,0.00,meteobridge,2013-09-07 12:25:00,
2013-09-07 08:30:00,56.1,53.8,30.16,West,261,0.0,0.9,92,0.00,,,0.00,meteobridge,2013-09-07 12:30:00,
2013-09-07 08:35:00,57.0,54.5,30.16,West,271,0.0,2.9,91,0.00,,,0.00,meteobridge,2013-09-07 12:35:00,
2013-09-07 08:40:00,57.7,54.9,30.16,West,271,0.0,2.0,90,0.00,,,0.00,meteobridge,2013-09-07 12:40:00,
2013-09-07 08:45:00,58.6,55.0,30.16,WSW,244,0.0,2.9,88,0.00,,,0.00,meteobridge,2013-09-07 12:45:00,
2013-09-07 08:51:00,59.9,55.8,30.16,NW,321,0.0,0.9,86,0.00,,,0.00,meteobridge,2013-09-07 12:51:00,
2013-09-07 08:56:00,61.0,56.1,30.16,NW,314,4.0,8.1,84,0.00,,,0.00,meteobridge,2013-09-07 12:56:00,
2013-09-07 09:01:00,62.1,56.5,30.16,NW,323,2.0,2.9,82,0.00,,,0.00,meteobridge,2013-09-07 13:01:00,
2013-09-07 09:06:00,63.0,55.9,30.16,South,186,2.0,4.9,78,0.00,,,0.00,meteobridge,2013-09-07 13:06:00,
2013-09-07 09:11:00,63.5,56.5,30.16,SW,219,0.9,2.0,78,0.00,,,0.00,meteobridge,2013-09-07 13:11:00,
2013-09-07 09:16:00,64.2,56.8,30.16,SW,219,2.9,4.0,77,0.00,,,0.00,meteobridge,2013-09-07 13:16:00,
2013-09-07 09:21:00,64.9,57.2,30.16,NW,313,0.9,4.9,76,0.00,,,0.00,meteobridge,2013-09-07 13:21:00,
2013-09-07 09:26:00,65.7,56.3,30.16,West,276,2.0,2.9,72,0.00,,,0.00,meteobridge,2013-09-07 13:26:00,
2013-09-07 09:31:00,66.0,55.6,30.16,SW,221,0.0,2.0,69,0.00,,,0.00,meteobridge,2013-09-07 13:31:00,
2013-09-07 09:36:00,66.6,56.1,30.16,SSW,202,2.0,4.9,69,0.00,,,0.00,meteobridge,2013-09-07 13:36:00,
2013-09-07 09:42:00,66.9,55.6,30.16,SSW,193,0.0,2.0,67,0.00,,,0.00,meteobridge,2013-09-07 13:42:00,
2013-09-07 09:47:00,67.8,56.1,30.16,NW,312,0.9,2.0,66,0.00,,,0.00,meteobridge,2013-09-07 13:47:00,
2013-09-07 09:52:00,68.5,55.0,30.16,NW,313,4.9,4.9,62,0.00,,,0.00,meteobridge,2013-09-07 13:52:00,
2013-09-07 09:57:00,69.4,55.4,30.16,WSW,257,0.9,2.9,61,0.00,,,0.00,meteobridge,2013-09-07 13:57:00,
2013-09-07 10:02:00,70.2,55.6,30.16,SSW,204,0.9,2.0,60,0.00,,,0.00,meteobridge,2013-09-07 14:02:00,
2013-09-07 10:07:00,70.5,55.9,30.15,SSW,205,0.0,2.0,60,0.00,,,0.00,meteobridge,2013-09-07 14:07:00,
2013-09-07 10:12:00,71.1,55.0,30.16,West,265,2.0,2.0,57,0.00,,,0.00,meteobridge,2013-09-07 14:12:00,
2013-09-07 10:17:00,71.6,54.5,30.15,West,259,2.9,4.0,55,0.00,,,0.00,meteobridge,2013-09-07 14:17:00,
2013-09-07 10:22:00,72.0,53.4,30.15,NNW,331,0.0,4.0,52,0.00,,,0.00,meteobridge,2013-09-07 14:22:00,
2013-09-07 10:27:00,72.7,53.4,30.15,NW,325,2.0,2.9,51,0.00,,,0.00,meteobridge,2013-09-07 14:27:00,
2013-09-07 10:32:00,73.4,53.1,30.15,NW,311,2.9,2.9,49,0.00,,,0.00,meteobridge,2013-09-07 14:32:00,
2013-09-07 10:37:00,73.4,52.5,30.15,WNW,300,0.9,2.9,48,0.00,,,0.00,meteobridge,2013-09-07 14:37:00,
2013-09-07 10:42:00,73.9,52.5,30.15,NW,308,0.9,6.0,47,0.00,,,0.00,meteobridge,2013-09-07 14:42:00,
2013-09-07 10:47:00,74.5,52.3,30.15,NW,325,2.9,8.1,46,0.00,,,0.00,meteobridge,2013-09-07 14:47:00,
2013-09-07 10:52:00,74.7,52.0,30.15,SSW,197,0.9,2.9,45,0.00,,,0.00,meteobridge,2013-09-07 14:52:00,
2013-09-07 10:57:00,75.0,51.6,30.15,NW,321,0.0,2.0,44,0.00,,,0.00,meteobridge,2013-09-07 14:57:00,
2013-09-07 11:03:00,75.9,51.3,30.15,NW,310,0.0,6.0,42,0.00,,,0.00,meteobridge,2013-09-07 15:03:00,
2013-09-07 11:08:00,75.9,52.5,30.14,NW,320,0.9,6.0,44,0.00,,,0.00,meteobridge,2013-09-07 15:08:00,
2013-09-07 11:13:00,76.3,51.4,30.14,NNW,347,4.0,6.0,42,0.00,,,0.00,meteobridge,2013-09-07 15:13:00,
2013-09-07 11:18:00,76.5,51.1,30.15,NW,306,0.0,8.1,41,0.00,,,0.00,meteobridge,2013-09-07 15:18:00,
2013-09-07 11:23:00,76.5,51.1,30.15,SW,220,0.0,4.0,41,0.00,,,0.00,meteobridge,2013-09-07 15:23:00,
2013-09-07 11:28:00,76.5,51.1,30.15,NW,313,4.9,8.9,41,0.00,,,0.00,meteobridge,2013-09-07 15:28:00,
2013-09-07 11:33:00,76.3,50.2,30.15,South,182,2.0,6.9,40,0.00,,,0.00,meteobridge,2013-09-07 15:33:00,
2013-09-07 11:38:00,76.3,51.4,30.15,WSW,257,2.9,4.9,42,0.00,,,0.00,meteobridge,2013-09-07 15:38:00,
2013-09-07 11:43:00,76.3,51.4,30.14,NNW,333,0.0,6.9,42,0.00,,,0.00,meteobridge,2013-09-07 15:43:00,
2013-09-07 11:48:00,76.6,52.5,30.14,SW,215,0.0,2.9,43,0.00,,,0.00,meteobridge,2013-09-07 15:48:00,
2013-09-07 11:53:00,77.2,51.6,30.14,West,273,2.0,6.0,41,0.00,,,0.00,meteobridge,2013-09-07 15:53:00,
2013-09-07 11:58:00,77.5,50.5,30.14,NW,316,2.0,4.0,39,0.00,,,0.00,meteobridge,2013-09-07 15:58:00,
2013-09-07 12:03:00,78.1,51.8,30.13,NW,321,2.9,4.9,40,0.00,,,0.00,meteobridge,2013-09-07 16:03:00,
2013-09-07 12:08:00,78.1,52.5,30.13,NW,317,0.9,4.0,41,0.00,,,0.00,meteobridge,2013-09-07 16:08:00,
2013-09-07 12:13:00,78.3,52.0,30.13,NNW,343,2.0,2.9,40,0.00,,,0.00,meteobridge,2013-09-07 16:13:00,
2013-09-07 12:19:00,78.6,52.3,30.13,NW,308,4.9,6.0,40,0.00,,,0.00,meteobridge,2013-09-07 16:19:00,
2013-09-07 12:24:00,78.6,50.9,30.12,NW,319,2.0,10.1,38,0.00,,,0.00,meteobridge,2013-09-07 16:24:00,
2013-09-07 12:29:00,78.4,52.2,30.12,WNW,301,2.9,8.1,40,0.00,,,0.00,meteobridge,2013-09-07 16:29:00,
2013-09-07 12:34:00,78.6,50.9,30.12,NNW,339,4.0,10.1,38,0.00,,,0.00,meteobridge,2013-09-07 16:34:00,
2013-09-07 12:39:00,78.6,50.9,30.11,NNW,348,0.0,0.9,38,0.00,,,0.00,meteobridge,2013-09-07 16:39:00,
2013-09-07 12:44:00,78.8,51.1,30.11,WNW,290,2.0,2.9,38,0.00,,,0.00,meteobridge,2013-09-07 16:44:00,
2013-09-07 12:49:00,79.2,51.4,30.11,WNW,287,2.0,2.9,38,0.00,,,0.00,meteobridge,2013-09-07 16:49:00,
2013-09-07 12:54:00,79.5,51.6,30.11,NNW,327,0.9,2.9,38,0.00,,,0.00,meteobridge,2013-09-07 16:54:00,
2013-09-07 12:59:00,79.5,49.5,30.10,West,271,4.0,8.9,35,0.00,,,0.00,meteobridge,2013-09-07 16:59:00,
2013-09-07 13:04:00,79.2,49.8,30.10,NW,311,4.0,6.0,36,0.00,,,0.00,meteobridge,2013-09-07 17:04:00,
2013-09-07 13:09:00,79.2,49.8,30.10,WNW,302,2.0,8.1,36,0.00,,,0.00,meteobridge,2013-09-07 17:09:00,
2013-09-07 13:14:00,79.3,49.3,30.09,NNW,331,0.0,4.0,35,0.00,,,0.00,meteobridge,2013-09-07 17:14:00,
2013-09-07 13:19:00,79.9,50.5,30.09,NNW,333,0.0,4.0,36,0.00,,,0.00,meteobridge,2013-09-07 17:19:00,
2013-09-07 13:24:00,80.1,50.0,30.09,SSE,163,0.0,4.0,35,0.00,,,0.00,meteobridge,2013-09-07 17:24:00,
2013-09-07 13:29:00,79.9,49.8,30.09,WSW,248,2.0,4.0,35,0.00,,,0.00,meteobridge,2013-09-07 17:29:00,
2013-09-07 13:34:00,80.2,50.9,30.08,SW,226,0.0,2.0,36,0.00,,,0.00,meteobridge,2013-09-07 17:34:00,
2013-09-07 13:39:00,80.1,49.1,30.08,NW,306,2.0,6.9,34,0.00,,,0.00,meteobridge,2013-09-07 17:39:00,
2013-09-07 13:44:00,80.2,50.9,30.08,SSW,202,0.0,2.9,36,0.00,,,0.00,meteobridge,2013-09-07 17:44:00,
2013-09-07 13:49:00,80.8,50.5,30.07,NE,36,4.0,4.0,35,0.00,,,0.00,meteobridge,2013-09-07 17:49:00,
2013-09-07 13:54:00,80.8,49.8,30.07,NW,310,0.0,6.0,34,0.00,,,0.00,meteobridge,2013-09-07 17:54:00,
2013-09-07 13:59:00,80.4,51.1,30.06,SSW,196,0.9,4.0,36,0.00,,,0.00,meteobridge,2013-09-07 17:59:00,
2013-09-07 14:04:00,80.2,50.9,30.06,SSW,205,0.9,2.9,36,0.00,,,0.00,meteobridge,2013-09-07 18:04:00,
2013-09-07 14:09:00,81.0,50.7,30.05,NNW,329,0.0,2.9,35,0.00,,,0.00,meteobridge,2013-09-07 18:09:00,
2013-09-07 14:14:00,81.7,51.4,30.05,SW,220,0.9,2.9,35,0.00,,,0.00,meteobridge,2013-09-07 18:14:00,
2013-09-07 14:19:00,82.2,50.2,30.05,NNW,328,2.9,6.9,33,0.00,,,0.00,meteobridge,2013-09-07 18:19:00,
2013-09-07 14:24:00,82.6,50.5,30.05,WSW,244,2.0,2.0,33,0.00,,,0.00,meteobridge,2013-09-07 18:24:00,
2013-09-07 14:29:00,82.8,49.8,30.05,WSW,255,0.0,2.0,32,0.00,,,0.00,meteobridge,2013-09-07 18:29:00,
2013-09-07 14:34:00,82.9,49.3,30.04,South,180,2.9,4.0,31,0.00,,,0.00,meteobridge,2013-09-07 18:34:00,
2013-09-07 14:39:00,82.4,49.6,30.04,WSW,246,0.0,2.9,32,0.00,,,0.00,meteobridge,2013-09-07 18:39:00,
2013-09-07 14:45:00,81.5,48.7,30.04,SW,221,2.0,8.1,32,0.00,,,0.00,meteobridge,2013-09-07 18:45:00,
2013-09-07 14:50:00,81.0,48.4,30.04,SW,230,0.0,4.9,32,0.00,,,0.00,meteobridge,2013-09-07 18:50:00,
2013-09-07 14:55:00,80.8,49.8,30.03,NW,309,0.9,6.0,34,0.00,,,0.00,meteobridge,2013-09-07 18:55:00,
2013-09-07 15:00:00,80.8,50.5,30.03,SW,224,0.9,0.9,35,0.00,,,0.00,meteobridge,2013-09-07 19:00:00,
2013-09-07 15:05:00,81.7,48.0,30.03,NW,321,0.0,2.9,31,0.00,,,0.00,meteobridge,2013-09-07 19:05:00,
2013-09-07 15:10:00,82.2,50.2,30.03,NW,321,0.0,2.0,33,0.00,,,0.00,meteobridge,2013-09-07 19:10:00,
2013-09-07 15:15:00,81.7,49.8,30.02,SSW,206,2.0,6.0,33,0.00,,,0.00,meteobridge,2013-09-07 19:15:00,
2013-09-07 15:20:00,80.8,50.5,30.02,SW,233,2.0,4.0,35,0.00,,,0.00,meteobridge,2013-09-07 19:20:00,
2013-09-07 15:25:00,80.4,50.2,30.02,West,269,0.9,4.0,35,0.00,,,0.00,meteobridge,2013-09-07 19:25:00,
2013-09-07 15:30:00,80.6,50.4,30.03,NNW,335,0.9,2.9,35,0.00,,,0.00,meteobridge,2013-09-07 19:30:00,
2013-09-07 15:35:00,80.6,52.0,30.02,SSE,167,2.0,4.9,37,0.00,,,0.00,meteobridge,2013-09-07 19:35:00,
2013-09-07 15:40:00,79.9,55.4,30.02,SSE,167,0.9,4.9,43,0.00,,,0.00,meteobridge,2013-09-07 19:40:00,
2013-09-07 15:46:00,79.5,51.6,30.03,SSE,150,4.0,6.0,38,0.00,,,0.00,meteobridge,2013-09-07 19:46:00,
2013-09-07 15:51:00,79.5,50.9,30.02,SSE,161,4.0,4.9,37,0.00,,,0.00,meteobridge,2013-09-07 19:51:00,
2013-09-07 15:56:00,79.0,55.8,30.02,WSW,254,6.0,6.0,45,0.00,,,0.00,meteobridge,2013-09-07 19:56:00,
2013-09-07 16:01:00,77.9,56.7,30.02,SSW,207,2.9,8.9,48,0.00,,,0.00,meteobridge,2013-09-07 20:01:00,
2013-09-07 16:06:00,77.5,57.9,30.02,South,177,0.9,4.0,51,0.00,,,0.00,meteobridge,2013-09-07 20:06:00,
2013-09-07 16:11:00,77.7,57.0,30.02,SSE,157,0.0,8.1,49,0.00,,,0.00,meteobridge,2013-09-07 20:11:00,
2013-09-07 16:16:00,77.2,57.0,30.01,ESE,105,2.0,8.1,50,0.00,,,0.00,meteobridge,2013-09-07 20:16:00,
2013-09-07 16:21:00,76.5,57.0,30.01,SSE,165,2.0,6.9,51,0.00,,,0.00,meteobridge,2013-09-07 20:21:00,
2013-09-07 16:26:00,76.1,57.2,30.01,South,180,2.9,6.9,52,0.00,,,0.00,meteobridge,2013-09-07 20:26:00,
2013-09-07 16:31:00,75.9,57.0,30.01,SSE,154,4.0,13.0,52,0.00,,,0.00,meteobridge,2013-09-07 20:31:00,
2013-09-07 16:36:00,75.7,56.8,30.01,WSW,244,0.0,6.0,52,0.00,,,0.00,meteobridge,2013-09-07 20:36:00,
2013-09-07 16:41:00,75.6,57.7,30.01,South,176,0.0,0.9,54,0.00,,,0.00,meteobridge,2013-09-07 20:41:00,
2013-09-07 16:46:00,75.4,57.0,30.01,West,270,2.0,8.1,53,0.00,,,0.00,meteobridge,2013-09-07 20:46:00,
2013-09-07 16:51:00,74.8,57.0,30.01,SSW,195,2.9,2.9,54,0.00,,,0.00,meteobridge,2013-09-07 20:51:00,
2013-09-07 16:56:00,74.5,57.2,30.01,SSW,200,0.0,4.0,55,0.00,,,0.00,meteobridge,2013-09-07 20:56:00,
2013-09-07 17:01:00,73.9,56.8,30.01,SSE,159,4.9,11.0,55,0.00,,,0.00,meteobridge,2013-09-07 21:01:00,
2013-09-07 17:06:00,73.2,57.0,30.01,South,179,6.0,8.9,57,0.00,,,0.00,meteobridge,2013-09-07 21:06:00,
2013-09-07 17:11:00,72.9,57.2,30.01,South,171,2.0,4.0,58,0.00,,,0.00,meteobridge,2013-09-07 21:11:00,
2013-09-07 17:16:00,72.7,57.0,30.01,South,183,2.9,4.9,58,0.00,,,0.00,meteobridge,2013-09-07 21:16:00,
2013-09-07 17:22:00,72.9,57.2,30.01,SW,223,0.9,2.9,58,0.00,,,0.00,meteobridge,2013-09-07 21:22:00,
2013-09-07 17:27:00,72.9,57.2,30.01,South,175,0.9,6.0,58,0.00,,,0.00,meteobridge,2013-09-07 21:27:00,
2013-09-07 17:32:00,72.9,57.7,30.01,South,169,0.9,8.9,59,0.00,,,0.00,meteobridge,2013-09-07 21:32:00,
2013-09-07 17:37:00,72.7,57.6,30.01,SSW,194,2.9,8.1,59,0.00,,,0.00,meteobridge,2013-09-07 21:37:00,
2013-09-07 17:42:00,72.3,57.2,30.01,South,171,2.0,6.9,59,0.00,,,0.00,meteobridge,2013-09-07 21:42:00,
2013-09-07 17:47:00,72.1,57.0,30.01,SSW,199,4.0,8.1,59,0.00,,,0.00,meteobridge,2013-09-07 21:47:00,
2013-09-07 17:52:00,72.0,57.7,30.01,SSW,200,2.0,2.9,61,0.00,,,0.00,meteobridge,2013-09-07 21:52:00,
2013-09-07 17:57:00,71.6,57.9,30.01,South,173,2.0,6.0,62,0.00,,,0.00,meteobridge,2013-09-07 21:57:00,
2013-09-07 18:02:00,71.2,57.0,30.01,NNE,22,2.9,4.9,61,0.00,,,0.00,meteobridge,2013-09-07 22:02:00,
2013-09-07 18:07:00,71.1,57.7,30.00,SSE,164,0.9,6.9,63,0.00,,,0.00,meteobridge,2013-09-07 22:07:00,
2013-09-07 18:13:00,70.5,57.4,30.01,SSW,199,0.9,0.9,63,0.00,,,0.00,meteobridge,2013-09-07 22:13:00,
2013-09-07 18:18:00,70.5,57.4,30.00,SSE,166,2.0,4.0,63,0.00,,,0.00,meteobridge,2013-09-07 22:18:00,
2013-09-07 18:23:00,70.2,57.4,30.00,ESE,111,4.0,6.9,64,0.00,,,0.00,meteobridge,2013-09-07 22:23:00,
2013-09-07 18:28:00,70.0,57.7,30.00,SSE,167,0.0,4.0,65,0.00,,,0.00,meteobridge,2013-09-07 22:28:00,
2013-09-07 18:33:00,69.6,57.4,30.00,SSE,164,0.0,4.9,65,0.00,,,0.00,meteobridge,2013-09-07 22:33:00,
2013-09-07 18:38:00,69.4,57.2,30.00,South,182,0.0,4.9,65,0.00,,,0.00,meteobridge,2013-09-07 22:38:00,
2013-09-07 18:43:00,69.4,57.6,30.00,SSE,163,0.0,4.0,66,0.00,,,0.00,meteobridge,2013-09-07 22:43:00,
2013-09-07 18:48:00,69.1,57.7,30.00,SW,236,0.9,2.9,67,0.00,,,0.00,meteobridge,2013-09-07 22:48:00,
2013-09-07 18:53:00,69.1,57.7,30.00,SSE,166,0.9,6.0,67,0.00,,,0.00,meteobridge,2013-09-07 22:53:00,
2013-09-07 18:58:00,68.7,57.4,30.00,SSE,151,0.9,2.0,67,0.00,,,0.00,meteobridge,2013-09-07 22:58:00,
2013-09-07 19:03:00,68.5,57.6,30.00,SSE,153,2.0,4.0,68,0.00,,,0.00,meteobridge,2013-09-07 23:03:00,
2013-09-07 19:08:00,68.4,57.7,29.99,South,186,0.0,2.9,69,0.00,,,0.00,meteobridge,2013-09-07 23:08:00,
2013-09-07 19:13:00,68.2,57.6,29.99,SSW,196,2.0,2.0,69,0.00,,,0.00,meteobridge,2013-09-07 23:13:00,
2013-09-07 19:18:00,68.2,57.6,29.99,SE,130,0.0,0.0,69,0.00,,,0.00,meteobridge,2013-09-07 23:18:00,
2013-09-07 19:24:00,68.0,57.4,30.00,SE,130,0.9,2.0,69,0.00,,,0.00,meteobridge,2013-09-07 23:24:00,
2013-09-07 19:29:00,67.8,57.2,30.00,SE,130,0.0,0.9,69,0.00,,,0.00,meteobridge,2013-09-07 23:29:00,
2013-09-07 19:34:00,67.6,57.0,29.99,SSE,148,0.9,4.9,69,0.00,,,0.00,meteobridge,2013-09-07 23:34:00,
2013-09-07 19:39:00,67.6,57.6,29.99,SSE,161,0.9,6.0,70,0.00,,,0.00,meteobridge,2013-09-07 23:39:00,
2013-09-07 19:44:00,67.5,57.4,29.99,SSE,162,0.0,2.0,70,0.00,,,0.00,meteobridge,2013-09-07 23:44:00,
2013-09-07 19:49:00,67.3,57.2,30.00,SSE,162,0.0,2.0,70,0.00,,,0.00,meteobridge,2013-09-07 23:49:00,
2013-09-07 19:54:00,67.3,57.2,29.99,SSE,150,0.0,4.0,70,0.00,,,0.00,meteobridge,2013-09-07 23:54:00,
2013-09-07 19:59:00,67.1,57.0,29.99,SSE,150,0.0,0.9,70,0.00,,,0.00,meteobridge,2013-09-07 23:59:00,
2013-09-07 20:04:00,66.9,56.8,29.99,ENE,73,0.0,2.0,70,0.00,,,0.00,meteobridge,2013-09-08 00:04:00,
2013-09-07 20:09:00,66.9,56.8,29.99,South,175,0.0,2.0,70,0.00,,,0.00,meteobridge,2013-09-08 00:09:00,
2013-09-07 20:14:00,66.9,56.8,29.99,South,181,0.0,0.0,70,0.00,,,0.00,meteobridge,2013-09-08 00:14:00,
2013-09-07 20:19:00,66.9,56.8,29.99,South,181,0.0,0.9,70,0.00,,,0.00,meteobridge,2013-09-08 00:19:00,
2013-09-07 20:24:00,66.9,56.8,29.99,West,266,2.0,2.0,70,0.00,,,0.00,meteobridge,2013-09-08 00:24:00,
2013-09-07 20:30:00,66.7,56.3,29.99,SE,142,0.0,0.9,69,0.00,,,0.00,meteobridge,2013-09-08 00:30:00,
2013-09-07 20:35:00,66.7,56.7,29.99,SSE,160,0.0,0.9,70,0.00,,,0.00,meteobridge,2013-09-08 00:35:00,
2013-09-07 20:40:00,66.6,56.5,29.99,SSE,160,0.0,0.9,70,0.00,,,0.00,meteobridge,2013-09-08 00:40:00,
2013-09-07 20:45:00,66.6,56.5,29.99,South,175,0.0,2.0,70,0.00,,,0.00,meteobridge,2013-09-08 00:45:00,
2013-09-07 20:50:00,66.4,56.7,29.99,SW,236,0.0,0.9,71,0.00,,,0.00,meteobridge,2013-09-08 00:50:00,
2013-09-07 20:56:00,66.0,56.3,29.99,SW,236,0.0,2.0,71,0.00,,,0.00,meteobridge,2013-09-08 00:56:00,
2013-09-07 21:01:00,66.0,56.3,29.99,SW,236,0.0,2.9,71,0.00,,,0.00,meteobridge,2013-09-08 01:01:00,
2013-09-07 21:06:00,65.8,56.1,29.99,SW,236,0.0,0.9,71,0.00,,,0.00,meteobridge,2013-09-08 01:06:00,
2013-09-07 21:11:00,65.8,56.1,29.99,SW,236,0.0,2.0,71,0.00,,,0.00,meteobridge,2013-09-08 01:11:00,
2013-09-07 21:16:00,65.8,56.5,29.99,SE,146,0.0,0.9,72,0.00,,,0.00,meteobridge,2013-09-08 01:16:00,
2013-09-07 21:21:00,65.8,56.5,30.00,SSW,193,2.9,2.9,72,0.00,,,0.00,meteobridge,2013-09-08 01:21:00,
2013-09-07 21:26:00,65.7,56.3,29.99,South,190,0.9,4.0,72,0.00,,,0.00,meteobridge,2013-09-08 01:26:00,
2013-09-07 21:31:00,65.7,56.3,29.99,SE,137,0.9,4.0,72,0.00,,,0.00,meteobridge,2013-09-08 01:31:00,
2013-09-07 21:36:00,65.8,57.0,29.99,WSW,242,2.0,2.0,73,0.00,,,0.00,meteobridge,2013-09-08 01:36:00,
2013-09-07 21:41:00,65.8,57.0,29.99,SSW,193,0.0,0.0,73,0.00,,,0.00,meteobridge,2013-09-08 01:41:00,
2013-09-07 21:46:00,65.8,57.0,29.99,South,184,0.9,4.0,73,0.00,,,0.00,meteobridge,2013-09-08 01:46:00,
2013-09-07 21:52:00,66.0,57.2,29.98,SW,229,0.0,2.0,73,0.00,,,0.00,meteobridge,2013-09-08 01:52:00,
2013-09-07 21:57:00,66.2,57.2,29.98,SSE,153,0.0,4.9,73,0.00,,,0.00,meteobridge,2013-09-08 01:57:00,
2013-09-07 22:02:00,66.2,57.2,29.98,SSW,202,0.0,0.0,73,0.00,,,0.00,meteobridge,2013-09-08 02:02:00,
2013-09-07 22:07:00,66.2,57.2,29.98,SW,218,0.0,4.9,73,0.00,,,0.00,meteobridge,2013-09-08 02:07:00,
2013-09-07 22:12:00,66.4,57.4,29.98,SW,219,0.0,2.0,73,0.00,,,0.00,meteobridge,2013-09-08 02:12:00,
2013-09-07 22:17:00,66.4,57.4,29.98,SW,222,0.0,2.9,73,0.00,,,0.00,meteobridge,2013-09-08 02:17:00,
2013-09-07 22:22:00,66.2,57.7,29.99,SSW,200,6.0,6.0,74,0.00,,,0.00,meteobridge,2013-09-08 02:22:00,
2013-09-07 22:27:00,66.2,57.7,29.98,SSW,207,2.0,6.0,74,0.00,,,0.00,meteobridge,2013-09-08 02:27:00,
2013-09-07 22:32:00,66.2,57.7,29.98,SW,218,0.9,4.0,74,0.00,,,0.00,meteobridge,2013-09-08 02:32:00,
2013-09-07 22:38:00,66.2,57.7,29.98,SW,228,0.9,2.9,74,0.00,,,0.00,meteobridge,2013-09-08 02:38:00,
2013-09-07 22:43:00,66.0,57.6,29.98,SW,228,0.0,0.9,74,0.00,,,0.00,meteobridge,2013-09-08 02:43:00,
2013-09-07 22:48:00,65.8,57.4,29.98,SSW,207,2.0,4.9,74,0.00,,,0.00,meteobridge,2013-09-08 02:48:00,
2013-09-07 22:53:00,65.8,57.4,29.98,SSW,211,0.0,2.9,74,0.00,,,0.00,meteobridge,2013-09-08 02:53:00,
2013-09-07 22:58:00,65.8,57.7,29.98,WSW,248,0.9,2.0,75,0.00,,,0.00,meteobridge,2013-09-08 02:58:00,
2013-09-07 23:03:00,65.8,57.4,29.98,South,187,4.0,4.9,74,0.00,,,0.00,meteobridge,2013-09-08 03:03:00,
2013-09-07 23:08:00,66.0,57.6,29.98,SSW,211,0.0,4.0,74,0.00,,,0.00,meteobridge,2013-09-08 03:08:00,
2013-09-07 23:13:00,66.0,57.6,29.98,SSW,194,0.0,2.9,74,0.00,,,0.00,meteobridge,2013-09-08 03:13:00,
2013-09-07 23:18:00,65.8,57.4,29.98,WNW,283,0.9,4.0,74,0.00,,,0.00,meteobridge,2013-09-08 03:18:00,
2013-09-07 23:23:00,65.8,57.7,29.98,SSE,167,0.9,6.9,75,0.00,,,0.00,meteobridge,2013-09-08 03:23:00,
2013-09-07 23:28:00,65.8,57.7,29.98,SW,227,0.9,2.0,75,0.00,,,0.00,meteobridge,2013-09-08 03:28:00,
2013-09-07 23:34:00,65.8,57.7,29.98,SW,231,0.0,4.0,75,0.00,,,0.00,meteobridge,2013-09-08 03:34:00,
2013-09-07 23:39:00,65.8,58.1,29.97,WSW,245,0.9,4.0,76,0.00,,,0.00,meteobridge,2013-09-08 03:39:00,
2013-09-07 23:44:00,65.8,58.1,29.97,SSW,211,0.0,6.0,76,0.00,,,0.00,meteobridge,2013-09-08 03:44:00,
2013-09-07 23:49:00,65.7,58.3,29.97,WNW,288,2.9,2.9,77,0.00,,,0.00,meteobridge,2013-09-08 03:49:00,
2013-09-07 23:54:00,65.7,58.3,29.97,WSW,239,0.0,4.0,77,0.00,,,0.00,meteobridge,2013-09-08 03:54:00,